Location: Township of South Roscoe
(37.9570°N, 100.1180°W)
Time: 14:31:39
(UTC+00:00)

USA 229 DEB - Pass Details

Date: 17 October 2021
Orbit: 944 x 1268 km, 63.4° (Epoch: 25 November)

Event Time Altitude Azimuth Distance (km) Brightness Sun altitude
Rises 12:13:00 0° 323° (NW) 4,025 6.3 -8.3°
Reaches altitude 10° 12:15:42 10° 319° (NW) 3,103 5.7 -7.8°
Maximum altitude 12:23:00 56° 244° (WSW) 1,434 4.1 -6.3°
Drops below altitude 10° 12:30:38 10° 168° (SSE) 3,238 6.5 -4.8°
Sets 12:33:31 0° 164° (SSE) 4,211 7.2 -4.3°
